Weather History for Flint, MI

Change the Weather History Date:

Sunday, March 10, 2013

  Actual Average Record
Temperature  
Mean Temperature 50 °F 32 °F  
Max Temperature 60 °F 41 °F 65 °F (1977)
Min Temperature 39 °F 23 °F 0 °F (1996)
Degree Days  
Heating Degree Days 15 33  
Month to date heating degree days 356 348  
Since 1 July heating degree days 5009 5436  
Cooling Degree Days 0 0  
Month to date cooling degree days 0 0  
Year to date cooling degree days 0 0  
Moisture  
Dew Point 36 °F    
Average Humidity 59    
Maximum Humidity 71    
Minimum Humidity 47    
Precipitation  
Precipitation T in 0.05 in 1.03 in (1992)
Month to date precipitation 0.05 0.56  
Year to date precipitation 5.51 3.67  
Snow  
Snow 0.00 in 0.30 in 6.90 in (1992)
Month to date snowfall 0.5 2.8  
Since 1 July snowfall 39.0 41.4  
Snow Depth T in    
Sea Level Pressure  
Sea Level Pressure 29.90 in    
Wind  
Wind Speed 9 mph (South)    
Max Wind Speed 20 mph    
Max Gust Speed 29 mph    
Visibility 10 miles    
Events Rain    
T = Trace of Precipitation, MM = Missing Value Source: NWS Daily Summary

Daily Weather History Graph

Daily Weather History Graph

Search for Another Location

Airport:

Trip Planner

Search our weather history database for the weather conditions in past years. The results will help you decide how hot, cold, wet, or windy it might be!

Date:

Astronomy

Mar. 10, 2013 Rise Set
Actual Time 7:55 AM EDT 7:35 PM EDT
Civil Twilight 7:27 AM EDT 8:03 PM EDT
Nautical Twilight 6:54 AM EDT 8:36 PM EDT
Astronomical Twilight 6:21 AM EDT 9:10 PM EDT
Moon 6:55 AM EDT (3/10) 6:42 PM EDT (3/10)
Length of Visible Light 12h 36m
Length of Day
11h 40m
Waning Crescent, 2% of the Moon is Illuminated
Mar 10
Waning Crescent
Mar 11
New
Mar 19
First Quarter
Mar 27
Full
Apr 3
Last Quarter

Hourly Weather History & Observations

Time (EDT) Temp. Windchill Dew Point Humidity Pressure Visibility Wind Dir Wind Speed Gust Speed Precip Events Conditions
12:53 AM 39.0 °F 33.4 °F 30.9 °F 73% 30.03 in 10.0 mi SSE 8.1 mph - N/A   Clear
1:53 AM 39.0 °F 33.4 °F 30.9 °F 73% 30.01 in 10.0 mi SSE 8.1 mph - N/A   Clear
3:53 AM 41.0 °F 35.2 °F 30.9 °F 67% 29.98 in 10.0 mi South 9.2 mph - N/A   Scattered Clouds
4:53 AM 43.0 °F 37.2 °F 30.9 °F 62% 29.95 in 10.0 mi SSE 10.4 mph - N/A   Overcast
5:53 AM 44.1 °F 39.0 °F 30.9 °F 60% 29.96 in 10.0 mi SSW 9.2 mph - N/A   Overcast
6:53 AM 46.0 °F 41.0 °F 30.9 °F 56% 29.94 in 10.0 mi South 10.4 mph - N/A   Overcast
7:53 AM 46.4 °F 41.1 °F 30.2 °F 53% 29.93 in 10.0 mi South 11.5 mph - N/A   Overcast
8:53 AM 46.9 °F - 33.1 °F 59% 29.96 in 10.0 mi SSW 11.5 mph - 0.00 in   Overcast
9:53 AM 46.9 °F - 37.0 °F 68% 29.96 in 10.0 mi South 5.8 mph - 0.00 in   Overcast
10:53 AM 48.9 °F - 35.1 °F 59% 29.92 in 10.0 mi South 6.9 mph - 0.00 in   Overcast
11:53 AM 53.1 °F - 35.1 °F 50% 29.91 in 10.0 mi South 10.4 mph - N/A   Overcast
12:53 PM 55.9 °F - 37.0 °F 49% 29.90 in 10.0 mi SSW 12.7 mph 24.2 mph N/A   Scattered Clouds
1:53 PM 57.9 °F - 37.9 °F 47% 29.89 in 10.0 mi South 13.8 mph 21.9 mph N/A   Clear
2:53 PM 59.0 °F - 39.9 °F 49% 29.88 in 10.0 mi SSW 8.1 mph - N/A   Overcast
3:53 PM 57.9 °F - 41.0 °F 53% 29.89 in 10.0 mi South 8.1 mph - N/A   Overcast
4:53 PM 57.9 °F - 42.1 °F 56% 29.86 in 9.0 mi South 9.2 mph - N/A   Overcast
5:53 PM 57.0 °F - 43.0 °F 59% 29.85 in 9.0 mi South 10.4 mph - N/A   Overcast
6:53 PM 54.0 °F - 42.1 °F 64% 29.85 in 9.0 mi SE 3.5 mph - N/A   Scattered Clouds
7:53 PM 50.0 °F - 39.9 °F 68% 29.83 in 10.0 mi ESE 4.6 mph - N/A   Scattered Clouds
8:53 PM 48.0 °F - 39.9 °F 74% 29.84 in 10.0 mi East 4.6 mph - N/A   Clear
9:53 PM 54.0 °F - 39.0 °F 57% 29.83 in 10.0 mi South 10.4 mph - N/A   Mostly Cloudy
10:53 PM 55.0 °F - 37.9 °F 53% 29.80 in 10.0 mi South 8.1 mph - 0.00 in Rain Light Rain
11:53 PM 54.0 °F - 37.0 °F 53% 29.78 in 10.0 mi South 6.9 mph - 0.00 in   Overcast
12:53 AM 57.0 °F - 37.9 °F 49% 29.78 in 10.0 mi South 12.7 mph 24.2 mph 0.00 in Rain Light Rain